sat.trackr.live / text

‹ back to catalog

STARLINK-35061

NORAD 66191 · 2025-243Q

PAYLOAD ACTIVE UNKNOWN

§ Identity

Operator
Country
US
Launch date
2025-10-26
Launch site
AFETR
Launch vehicle
Mass (kg)
RCS (m²)

Purposes: comms

External: N2YO · Heavens-Above · Gunter

§ Orbital elements

Epoch: 2026-09-20T22:24:24.828480Z

Period
93.85 min
Inclination
53.1585°
Eccentricity
0.0001166
Mean motion
15.34404371 rev/d
Perigee alt
461.9 km
Apogee alt
463.5 km
Semi-major
6,840.8 km
B*
6.1972e-4
RAAN
55.7303°
Arg perigee
96.6421°
Mean anomaly
263.4715°
Rev number
5,058

§ Raw data

STARLINK-350611 66191U 25243Q   26263.93362070  .00020622  00000+0  61972-3 0  99972 66191  53.1585  55.7303 0001166  96.6421 263.4715 15.34404371 50585

JSON: /api/v1/satellites/66191 · /tle

For live sub-satellite position, see the globe view (requires WebGL).

§ Visibility from observer

Set your observer location to see the next 7 days of passes ≥ 10°. The values pass through the URL so the page stays shareable.

No JS? Fill the form by hand. The geolocation button needs JavaScript.